AirNav   Air Wisconsin Up To $57,000 Bonus
 
 601 users online  

SC26 Hawks Nest Farm Airport
West Union, South Carolina, USA

GOING TO WEST UNION?


FAA INFORMATION EFFECTIVE 09 SEPTEMBER 2021

Location

FAA Identifier: SC26
Lat/Long: 34-48-29.0000N 082-59-55.0000W
34-48.483333N 082-59.916667W
34.8080556,-82.9986111
(estimated)
Elevation: 1050 ft. / 320 m (estimated)
Variation: 04W (1995)
From city: 4 miles NE of WEST UNION, SC
Time zone: UTC -4 (UTC -5 during Standard Time)
Zip code: 29696

Airport Operations

Airport use: Private use. Permission required prior to landing
Activation date: 09/1996
Control tower: no
ARTCC: ATLANTA CENTER
FSS: ANDERSON FLIGHT SERVICE STATION
Attendance: IREG
Wind indicator: yes
Segmented circle: no

Airport Communications

WX ASOS at CEU (10 nm SE): 119.275 (864-653-8855)
WX AWOS-3 at LQK (15 nm E): 120.0 (864-843-5801)
WX AWOS-3 at TOC (20 nm SW): 119.625 (706-297-7473)

Nearby radio navigation aids

VOR radial/distance  VOR name  Freq  Var
ODFr065/16.2FOOTHILLS VOR/DME113.4000E
ELWr336/25.6ELECTRIC CITY VORTAC108.6000E

 
NDB name  Hdg/Dist  Freq  Var  ID
BROAD RIVER230/38.137907WBRA -... .-. .-

Airport Services

Runway Information

Runway 3/21

Dimensions: 1800 x 100 ft. / 549 x 30 m
Surface: turf
RUNWAY 3  RUNWAY 21
Traffic pattern: leftleft

Airport Ownership and Management from official FAA records

Ownership: Privately-owned
Owner: DAN T SUDDETH
213 BURNT TANYARD ROAD
WEST UNION, SC 29696
Phone 864-903-1017
Manager: DAN T. SUDDETH
213 BURNT TANYARD ROAD
WEST UNION, SC 29696
Phone 864-903-1017

Airport Operational Statistics

Aircraft based on the field: 2
Single engine airplanes: 1
Helicopters: 1
    

Additional Remarks

FOR CD CTC ATLANTA ARTCC AT 770-210-7692.

Instrument Procedures

There are no published instrument procedures at SC26.

Some nearby airports with instrument procedures:

KCEU - Oconee County Regional Airport (10 nm SE)
KLQK - Pickens County Airport (15 nm E)
KTOC - Toccoa Airport-RG Letourneau Field (20 nm SW)
KAND - Anderson Regional Airport (24 nm SE)
18A - Franklin-Hart Airport (29 nm S)
 
Loc | Ops | Rwys | IFR | FBO | Links
Com | Nav | Svcs | Stats | Notes
Area around SC26 (Hawks Nest Farm Airport)
 
Road maps at: MapQuest Bing Google
 
Aerial photo
No photo
 
Sectional chart

 
Airport distance calculator
Flying to Hawks Nest Farm Airport? Find the distance to fly.

From to SC26

Sunrise and sunset
Times for 20-Sep-2021
 Local
(UTC-4)
 Zulu
(UTC)
Morning civil twilight06:5410:54
Sunrise07:2011:20
Sunset19:3123:31
Evening civil twilight19:5723:57

Current date and time
Zulu (UTC)  20-Sep-2021 11:38:17
Local (UTC-4)  20-Sep-2021 07:38:17
 
METAR
KCEU 
10nm SE 
201054Z AUTO 07006KT 10SM OVC006 22/21 A3012 RMK AO2 CIG 004V009 SLP189 T02170211
KLQK 
15nm E 
201115Z AUTO 07003KT 10SM BKN006 BKN010 OVC026 21/21 A3013 RMK AO2 T02100206
KTOC 
20nm SW 
201115Z AUTO 07005KT 10SM -DZ OVC005 20/19 A3011 RMK AO2 T02010187
TAF
KAND 
23nm SE 
201023Z 2010/2106 06008KT P6SM VCSH BKN007 TEMPO 2010/2014 6SM -SHRA BR SCT007 BKN017 FM201400 07007KT P6SM VCSH OVC020 PROB30 2019/2021 4SM -SHRA BR OVC015 FM202100 08009KT P6SM -SHRA OVC027 FM202300 07008KT 4SM -SHRA BR OVC017
NOTAMs
Click for the latest NOTAMs
NOTAMs are issued by the DoD/FAA and will open in a separate window not controlled by AirNav.

 

 
 

Would you like to see your business listed on this page?

 If your business provides an interesting product or service to pilots, flight crews, aircraft, or users of the Hawks Nest Farm Airport, you should consider listing it here.  To start the listing process, click on the button below
 
Add a business
 

Other Pages about Hawks Nest Farm Airport

Update a link
 
Copyright © AirNav, LLC. All rights reserved. Privacy Policy  Contact